Weather History for Russellville, AR

Change the Weather History Date:

Sunday, October 30, 2011

  Actual Average (KHOT) Record (KHOT)
Temperature  
Mean Temperature 52 °F -  
Max Temperature 69 °F 71 °F 85 °F (1968)
Min Temperature 36 °F 47 °F 28 °F (1993)
Degree Days  
Heating Degree Days 13    
Growing Degree Days 2 (Base 50)    
Moisture  
Dew Point 38 °F    
Average Humidity 72    
Maximum Humidity 97    
Minimum Humidity 30    
Precipitation  
Precipitation 0.00 in - - ()
Sea Level Pressure  
Sea Level Pressure 30.14 in    
Wind  
Wind Speed 1 mph (SW)    
Max Wind Speed 8 mph    
Max Gust Speed -    
Visibility 9 miles    
Events      
Averages and records for this station are not official NWS values.
T = Trace of Precipitation, MM = Missing Value Source: NWS Daily Summary

Daily Weather History Graph

Daily Weather History Graph

Search for Another Location

Airport:

Trip Planner

Search our weather history database for the weather conditions in past years. The results will help you decide how hot, cold, wet, or windy it might be!

Date:

Astronomy

Oct. 30, 2011 Rise Set
Actual Time 7:31 AM CDT 6:19 PM CDT
Civil Twilight 7:05 AM CDT 6:46 PM CDT
Nautical Twilight 6:35 AM CDT 7:15 PM CDT
Astronomical Twilight 6:05 AM CDT 7:45 PM CDT
Moon 11:45 AM CDT (10/30) 9:55 PM CDT (10/30)
Length of Visible Light 11h 40m
Length of Day
10h 48m
Waxing Crescent, 20% of the Moon is Illuminated
Oct 30
Waxing Crescent
Nov 2
First Quarter
Nov 10
Full
Nov 18
Last Quarter
Nov 25
New

Hourly Weather History & Observations

Time (CDT) Temp. Dew Point Humidity Pressure Visibility Wind Dir Wind Speed Gust Speed Precip Events Conditions
12:53 AM 39.9 °F 37.9 °F 93% 30.14 in 9.0 mi Calm Calm - N/A   Clear
1:53 AM 39.0 °F 37.0 °F 93% 30.14 in 8.0 mi Calm Calm - N/A   Clear
2:53 AM 37.9 °F 36.0 °F 93% 30.14 in 7.0 mi Calm Calm - N/A   Clear
3:53 AM 37.9 °F 36.0 °F 93% 30.14 in 10.0 mi Calm Calm - N/A   Clear
4:53 AM 36.0 °F 35.1 °F 97% 30.14 in 8.0 mi Calm Calm - N/A   Clear
5:53 AM 37.0 °F 35.1 °F 93% 30.16 in 9.0 mi Calm Calm - N/A   Clear
7:53 AM 36.0 °F 35.1 °F 97% 30.19 in 6.0 mi Calm Calm - N/A   Clear
8:53 AM 42.1 °F 39.9 °F 92% 30.21 in - Calm Calm - N/A   Clear
9:53 AM 50.0 °F 41.0 °F 71% 30.20 in - Variable 3.5 mph - N/A   Clear
10:53 AM 54.0 °F 39.9 °F 59% 30.19 in 10.0 mi Calm Calm - N/A   Clear
11:53 AM 59.0 °F 39.0 °F 48% 30.18 in 10.0 mi SW 5.8 mph - N/A   Clear
12:53 PM 64.0 °F 37.0 °F 37% 30.16 in 10.0 mi WSW 8.1 mph - N/A   Clear
1:53 PM 66.0 °F 35.1 °F 32% 30.11 in 10.0 mi SSW 6.9 mph - N/A   Clear
2:53 PM 68.0 °F 36.0 °F 31% 30.08 in 10.0 mi Variable 4.6 mph - N/A   Clear
3:53 PM 68.0 °F 35.1 °F 30% 30.07 in 10.0 mi SW 5.8 mph - N/A   Clear
4:53 PM 68.0 °F 36.0 °F 31% 30.08 in 10.0 mi SW 4.6 mph - N/A   Clear
6:53 PM 54.0 °F 44.1 °F 69% 30.09 in 10.0 mi Calm Calm - N/A   Clear
7:53 PM 48.9 °F 43.0 °F 80% 30.10 in 10.0 mi Calm Calm - N/A   Clear
8:53 PM 46.9 °F 42.1 °F 83% 30.11 in 10.0 mi Calm Calm - N/A   Clear
9:53 PM 46.0 °F 42.1 °F 86% 30.12 in 10.0 mi Calm Calm - N/A   Clear
10:53 PM 45.0 °F 42.1 °F 90% 30.14 in 10.0 mi Calm Calm - N/A   Clear
11:53 PM 43.0 °F 39.9 °F 89% 30.15 in 10.0 mi Calm Calm - N/A   Clear